Time,TemperatureF,DewpointF,PressureIn,WindDirection,WindDirectionDegrees,WindSpeedMPH,WindSpeedGustMPH,Humidity,HourlyPrecipIn,Conditions,Clouds,dailyrainin,SoftwareType,DateUTC
2013-09-23 00:00:00,71.4,51.0,29.65,South,188,2.0,5.0,48,0.00,,,0.00,weatherlink.com 1.10,2013-09-23 07:00:00,
2013-09-23 00:16:00,71.5,51.0,29.66,SSE,162,2.0,7.0,48,0.00,,,0.00,weatherlink.com 1.10,2013-09-23 07:16:00,
2013-09-23 00:31:00,71.4,51.0,29.66,SE,129,2.0,6.0,48,0.00,,,0.00,weatherlink.com 1.10,2013-09-23 07:31:00,
2013-09-23 00:46:00,71.4,51.0,29.65,NNE,22,4.0,5.0,48,0.00,,,0.00,weatherlink.com 1.10,2013-09-23 07:46:00,
2013-09-23 01:01:00,71.5,50.0,29.66,SW,231,2.0,7.0,47,0.00,,,0.00,weatherlink.com 1.10,2013-09-23 08:01:00,
2013-09-23 01:16:00,71.4,49.0,29.66,East,82,2.0,7.0,46,0.00,,,0.00,weatherlink.com 1.10,2013-09-23 08:16:00,
2013-09-23 01:31:00,71.5,49.0,29.66,SE,146,1.0,5.0,45,0.00,,,0.00,weatherlink.com 1.10,2013-09-23 08:31:00,
2013-09-23 01:46:00,70.9,50.0,29.67,NNW,342,0.0,4.0,47,0.00,,,0.00,weatherlink.com 1.10,2013-09-23 08:46:00,
2013-09-23 02:01:00,70.1,48.0,29.67,East,101,1.0,3.0,45,0.00,,,0.00,weatherlink.com 1.10,2013-09-23 09:01:00,
2013-09-23 02:16:00,69.9,46.0,29.67,SW,219,0.0,4.0,43,0.00,,,0.00,weatherlink.com 1.10,2013-09-23 09:16:00,
2013-09-23 02:31:00,69.4,43.0,29.67,East,100,1.0,2.0,39,0.00,,,0.00,weatherlink.com 1.10,2013-09-23 09:31:00,
2013-09-23 02:46:00,69.0,45.0,29.66,WSW,249,1.0,3.0,43,0.00,,,0.00,weatherlink.com 1.10,2013-09-23 09:46:00,
2013-09-23 03:01:00,68.4,47.0,29.67,ESE,112,0.0,4.0,46,0.00,,,0.00,weatherlink.com 1.10,2013-09-23 10:01:00,
2013-09-23 03:16:00,67.0,43.0,29.67,ENE,75,2.0,2.0,42,0.00,,,0.00,weatherlink.com 1.10,2013-09-23 10:16:00,
2013-09-23 03:31:00,66.1,42.0,29.67,East,98,0.0,3.0,42,0.00,,,0.00,weatherlink.com 1.10,2013-09-23 10:31:00,
2013-09-23 03:46:00,65.9,41.0,29.67,SE,135,1.0,3.0,41,0.00,,,0.00,weatherlink.com 1.10,2013-09-23 10:46:00,
2013-09-23 04:01:00,66.5,43.0,29.67,ENE,70,2.0,3.0,42,0.00,,,0.00,weatherlink.com 1.10,2013-09-23 11:01:00,
2013-09-23 04:16:00,66.8,40.0,29.67,ESE,115,0.0,3.0,38,0.00,,,0.00,weatherlink.com 1.10,2013-09-23 11:16:00,
2013-09-23 04:31:00,67.1,37.0,29.68,SE,146,2.0,2.0,33,0.00,,,0.00,weatherlink.com 1.10,2013-09-23 11:31:00,
2013-09-23 04:46:00,-999.0,-99.9,29.68,North,-999,-999.0,-999.0,-999,0.00,,,0.00,weatherlink.com 1.10,2013-09-23 11:46:00,
2013-09-23 05:01:00,-999.0,-99.9,29.68,North,-999,-999.0,-999.0,-999,0.00,,,0.00,weatherlink.com 1.10,2013-09-23 12:01:00,
2013-09-23 05:16:00,-999.0,-99.9,29.68,North,-999,-999.0,-999.0,-999,0.00,,,0.00,weatherlink.com 1.10,2013-09-23 12:16:00,
2013-09-23 05:31:00,-999.0,-99.9,29.69,North,-999,-999.0,-999.0,-999,0.00,,,0.00,weatherlink.com 1.10,2013-09-23 12:31:00,
2013-09-23 05:46:00,-999.0,-99.9,29.69,North,-999,-999.0,-999.0,-999,0.00,,,0.00,weatherlink.com 1.10,2013-09-23 12:46:00,
2013-09-23 06:02:00,-999.0,-99.9,29.69,North,-999,-999.0,-999.0,-999,0.00,,,0.00,weatherlink.com 1.10,2013-09-23 13:02:00,
2013-09-23 06:17:00,-999.0,-99.9,29.70,North,-999,-999.0,-999.0,-999,0.00,,,0.00,weatherlink.com 1.10,2013-09-23 13:17:00,
2013-09-23 06:32:00,-999.0,-99.9,29.70,North,-999,-999.0,-999.0,-999,0.00,,,0.00,weatherlink.com 1.10,2013-09-23 13:32:00,
2013-09-23 06:47:00,-999.0,-99.9,29.71,North,-999,-999.0,-999.0,-999,0.00,,,0.00,weatherlink.com 1.10,2013-09-23 13:47:00,
2013-09-23 07:02:00,-999.0,-99.9,29.71,North,-999,-999.0,-999.0,-999,0.00,,,0.00,weatherlink.com 1.10,2013-09-23 14:02:00,
2013-09-23 07:17:00,66.8,35.0,29.71,ESE,112,1.0,2.0,31,0.00,,,0.00,weatherlink.com 1.10,2013-09-23 14:17:00,
2013-09-23 07:32:00,68.3,36.0,29.72,East,91,2.0,2.0,30,0.00,,,0.00,weatherlink.com 1.10,2013-09-23 14:32:00,
2013-09-23 07:47:00,70.9,37.0,29.72,ENE,70,1.0,2.0,29,0.00,,,0.00,weatherlink.com 1.10,2013-09-23 14:47:00,
2013-09-23 08:02:00,73.9,37.0,29.72,East,90,2.0,2.0,26,0.00,,,0.00,weatherlink.com 1.10,2013-09-23 15:02:00,
2013-09-23 08:17:00,76.0,38.0,29.73,ESE,105,0.0,3.0,25,0.00,,,0.00,weatherlink.com 1.10,2013-09-23 15:17:00,
2013-09-23 08:32:00,78.3,38.0,29.73,East,91,1.0,3.0,23,0.00,,,0.00,weatherlink.com 1.10,2013-09-23 15:32:00,
2013-09-23 08:47:00,80.1,38.0,29.73,East,96,1.0,2.0,22,0.00,,,0.00,weatherlink.com 1.10,2013-09-23 15:47:00,
2013-09-23 09:02:00,82.3,36.0,29.73,ENE,59,1.0,1.0,19,0.00,,,0.00,weatherlink.com 1.10,2013-09-23 16:02:00,
2013-09-23 09:17:00,84.2,36.0,29.74,NE,41,0.0,1.0,18,0.00,,,0.00,weatherlink.com 1.10,2013-09-23 16:17:00,
2013-09-23 09:32:00,86.2,36.0,29.74,NE,43,0.0,1.0,17,0.00,,,0.00,weatherlink.com 1.10,2013-09-23 16:32:00,
2013-09-23 09:48:00,88.8,39.0,29.74,East,91,0.0,1.0,17,0.00,,,0.00,weatherlink.com 1.10,2013-09-23 16:48:00,
2013-09-23 10:18:00,92.9,35.0,29.74,NW,305,0.0,2.0,13,0.00,,,0.00,weatherlink.com 1.10,2013-09-23 17:18:00,
2013-09-23 10:33:00,92.7,33.0,29.74,ENE,72,1.0,3.0,12,0.00,,,0.00,weatherlink.com 1.10,2013-09-23 17:33:00,
2013-09-23 10:48:00,93.1,33.0,29.73,West,260,0.0,1.0,12,0.00,,,0.00,weatherlink.com 1.10,2013-09-23 17:48:00,
2013-09-23 11:03:00,94.4,32.0,29.73,NW,308,1.0,2.0,11,0.00,,,0.00,weatherlink.com 1.10,2013-09-23 18:03:00,
2013-09-23 11:19:00,94.7,30.0,29.73,WNW,295,3.0,4.0,10,0.00,,,0.00,weatherlink.com 1.10,2013-09-23 18:19:00,
2013-09-23 11:33:00,95.5,31.0,29.73,NW,324,1.0,2.0,10,0.00,,,0.00,weatherlink.com 1.10,2013-09-23 18:33:00,
2013-09-23 11:48:00,95.7,33.0,29.73,NNW,330,1.0,4.0,11,0.00,,,0.00,weatherlink.com 1.10,2013-09-23 18:48:00,
2013-09-23 12:03:00,95.0,30.0,29.72,NNW,330,0.0,6.0,10,0.00,,,0.00,weatherlink.com 1.10,2013-09-23 19:03:00,
2013-09-23 12:18:00,95.5,31.0,29.72,NNE,15,1.0,5.0,10,0.00,,,0.00,weatherlink.com 1.10,2013-09-23 19:18:00,
2013-09-23 12:33:00,95.9,28.0,29.72,NE,37,0.0,5.0,9,0.00,,,0.00,weatherlink.com 1.10,2013-09-23 19:33:00,
2013-09-23 12:48:00,96.6,34.0,29.71,NE,47,2.0,3.0,11,0.00,,,0.00,weatherlink.com 1.10,2013-09-23 19:48:00,
2013-09-23 13:03:00,97.4,32.0,29.71,NW,308,0.0,5.0,10,0.00,,,0.00,weatherlink.com 1.10,2013-09-23 20:03:00,
2013-09-23 13:18:00,97.9,33.0,29.70,WNW,302,1.0,6.0,10,0.00,,,0.00,weatherlink.com 1.10,2013-09-23 20:18:00,
2013-09-23 13:33:00,96.6,32.0,29.70,NW,316,3.0,5.0,10,0.00,,,0.00,weatherlink.com 1.10,2013-09-23 20:33:00,
2013-09-23 13:48:00,97.4,32.0,29.69,WNW,300,1.0,6.0,10,0.00,,,0.00,weatherlink.com 1.10,2013-09-23 20:48:00,
2013-09-23 14:03:00,97.3,32.0,29.69,WNW,290,3.0,7.0,10,0.00,,,0.00,weatherlink.com 1.10,2013-09-23 21:03:00,
2013-09-23 14:18:00,97.3,35.0,29.68,NNW,336,3.0,6.0,11,0.00,,,0.00,weatherlink.com 1.10,2013-09-23 21:18:00,
2013-09-23 14:33:00,98.2,33.0,29.68,West,277,2.0,6.0,10,0.00,,,0.00,weatherlink.com 1.10,2013-09-23 21:33:00,
2013-09-23 14:48:00,98.1,33.0,29.68,WNW,287,4.0,6.0,10,0.00,,,0.00,weatherlink.com 1.10,2013-09-23 21:48:00,
2013-09-23 15:03:00,97.7,32.0,29.68,WNW,290,0.0,4.0,10,0.00,,,0.00,weatherlink.com 1.10,2013-09-23 22:03:00,
2013-09-23 15:18:00,99.1,31.0,29.67,NW,319,1.0,4.0,9,0.00,,,0.00,weatherlink.com 1.10,2013-09-23 22:18:00,
2013-09-23 15:33:00,98.6,33.0,29.66,WNW,296,3.0,5.0,10,0.00,,,0.00,weatherlink.com 1.10,2013-09-23 22:33:00,
2013-09-23 15:48:00,97.7,32.0,29.66,North,355,0.0,6.0,10,0.00,,,0.00,weatherlink.com 1.10,2013-09-23 22:48:00,
2013-09-23 16:03:00,98.0,35.0,29.66,NNW,342,3.0,5.0,11,0.00,,,0.00,weatherlink.com 1.10,2013-09-23 23:03:00,
2013-09-23 16:18:00,97.5,32.0,29.66,WNW,285,1.0,6.0,10,0.00,,,0.00,weatherlink.com 1.10,2013-09-23 23:18:00,
2013-09-23 16:33:00,97.3,35.0,29.66,WNW,294,3.0,6.0,11,0.00,,,0.00,weatherlink.com 1.10,2013-09-23 23:33:00,
2013-09-23 16:48:00,97.5,35.0,29.65,WNW,285,2.0,4.0,11,0.00,,,0.00,weatherlink.com 1.10,2013-09-23 23:48:00,
2013-09-23 17:03:00,96.8,34.0,29.65,WNW,288,3.0,5.0,11,0.00,,,0.00,weatherlink.com 1.10,2013-09-24 00:03:00,
2013-09-23 17:18:00,97.0,36.0,29.65,WNW,287,1.0,4.0,12,0.00,,,0.00,weatherlink.com 1.10,2013-09-24 00:18:00,
2013-09-23 17:34:00,96.2,36.0,29.65,WNW,302,3.0,5.0,12,0.00,,,0.00,weatherlink.com 1.10,2013-09-24 00:34:00,
2013-09-23 17:48:00,95.9,36.0,29.65,WNW,302,1.0,4.0,12,0.00,,,0.00,weatherlink.com 1.10,2013-09-24 00:48:00,
2013-09-23 18:03:00,94.7,37.0,29.65,WNW,293,1.0,3.0,13,0.00,,,0.00,weatherlink.com 1.10,2013-09-24 01:03:00,
2013-09-23 18:18:00,92.2,37.0,29.65,WNW,302,0.0,2.0,14,0.00,,,0.00,weatherlink.com 1.10,2013-09-24 01:18:00,
2013-09-23 18:33:00,90.8,39.0,29.65,WNW,302,0.0,1.0,16,0.00,,,0.00,weatherlink.com 1.10,2013-09-24 01:33:00,
2013-09-23 18:48:00,89.3,39.0,29.66,WNW,302,0.0,1.0,17,0.00,,,0.00,weatherlink.com 1.10,2013-09-24 01:48:00,
2013-09-23 19:03:00,88.1,38.0,29.66,WNW,291,0.0,1.0,17,0.00,,,0.00,weatherlink.com 1.10,2013-09-24 02:03:00,
2013-09-23 19:18:00,87.2,39.0,29.66,WNW,291,0.0,1.0,18,0.00,,,0.00,weatherlink.com 1.10,2013-09-24 02:18:00,
2013-09-23 19:33:00,85.9,39.0,29.67,WNW,291,0.0,1.0,19,0.00,,,0.00,weatherlink.com 1.10,2013-09-24 02:33:00,
2013-09-23 19:48:00,85.6,37.0,29.68,West,276,0.0,3.0,18,0.00,,,0.00,weatherlink.com 1.10,2013-09-24 02:48:00,
2013-09-23 20:03:00,85.5,39.0,29.68,WNW,293,0.0,3.0,19,0.00,,,0.00,weatherlink.com 1.10,2013-09-24 03:03:00,
2013-09-23 20:18:00,85.7,39.0,29.69,WNW,290,1.0,3.0,19,0.00,,,0.00,weatherlink.com 1.10,2013-09-24 03:18:00,
2013-09-23 20:33:00,85.5,39.0,29.70,WNW,293,2.0,3.0,19,0.00,,,0.00,weatherlink.com 1.10,2013-09-24 03:33:00,
2013-09-23 20:48:00,85.0,38.0,29.70,WNW,287,1.0,3.0,19,0.00,,,0.00,weatherlink.com 1.10,2013-09-24 03:48:00,
2013-09-23 21:03:00,83.6,40.0,29.71,NE,53,1.0,1.0,21,0.00,,,0.00,weatherlink.com 1.10,2013-09-24 04:03:00,
2013-09-23 21:18:00,82.1,37.0,29.71,SE,128,2.0,2.0,20,0.00,,,0.00,weatherlink.com 1.10,2013-09-24 04:18:00,
2013-09-23 21:33:00,80.7,36.0,29.71,SE,128,0.0,3.0,20,0.00,,,0.00,weatherlink.com 1.10,2013-09-24 04:33:00,
2013-09-23 21:48:00,79.5,36.0,29.72,ESE,121,0.0,1.0,21,0.00,,,0.00,weatherlink.com 1.10,2013-09-24 04:48:00,
2013-09-23 22:03:00,77.8,37.0,29.72,ESE,121,0.0,0.0,23,0.00,,,0.00,weatherlink.com 1.10,2013-09-24 05:03:00,
2013-09-23 22:18:00,76.4,39.0,29.72,ESE,121,0.0,0.0,26,0.00,,,0.00,weatherlink.com 1.10,2013-09-24 05:18:00,
2013-09-23 22:33:00,75.7,40.0,29.72,ESE,121,0.0,1.0,28,0.00,,,0.00,weatherlink.com 1.10,2013-09-24 05:33:00,
2013-09-23 22:48:00,76.6,39.0,29.72,ESE,108,0.0,2.0,26,0.00,,,0.00,weatherlink.com 1.10,2013-09-24 05:48:00,
2013-09-23 23:03:00,77.9,36.0,29.72,East,94,0.0,1.0,22,0.00,,,0.00,weatherlink.com 1.10,2013-09-24 06:03:00,
2013-09-23 23:18:00,78.1,35.0,29.72,SSE,167,0.0,2.0,21,0.00,,,0.00,weatherlink.com 1.10,2013-09-24 06:18:00,
2013-09-23 23:34:00,78.6,35.0,29.72,East,91,1.0,2.0,21,0.00,,,0.00,weatherlink.com 1.10,2013-09-24 06:34:00,
2013-09-23 23:49:00,78.2,35.0,29.72,SE,125,0.0,2.0,21,0.00,,,0.00,weatherlink.com 1.10,2013-09-24 06:49:00,